Date,TemperatureHighF,TemperatureAvgF,TemperatureLowF,DewpointHighF,DewpointAvgF,DewpointLowF,HumidityHigh,HumidityAvg,HumidityLow,PressureMaxIn,PressureMinIn,WindSpeedMaxMPH,WindSpeedAvgMPH,GustSpeedMaxMPH,PrecipitationSumIn
2013-1-24,44.8,35.1,26.6,31.8,13.2,1.2,61,42,24,30.39,30.13,11,4,18,0.00
2013-1-25,32.8,28.9,25.7,29.9,19.9,3.5,89,71,37,30.34,30.09,2,0,4,0.00
2013-1-26,46.1,36.7,30.7,32.7,29.2,25.3,90,76,47,30.35,30.18,4,1,6,0.00
2013-1-27,45.9,36.4,25.2,35.8,28.6,20.8,85,74,57,30.44,30.32,3,1,6,0.00
2013-1-28,58.7,48.3,38.3,48.6,40.6,33.9,87,75,59,30.36,30.22,10,2,11,0.00
2013-1-29,68.4,56.5,41.3,55.7,48.7,37.7,90,76,61,30.23,29.90,7,1,13,0.00
2013-1-30,69.8,53.2,42.3,59.3,47.5,33.2,91,81,61,29.87,29.52,36,6,36,0.00
2013-1-31,42.3,37.4,32.6,33.6,22.7,18.9,77,56,41,30.06,29.71,38,10,38,0.00
2013-2-1,43.2,28.1,19.9,29.5,12.8,5.2,79,53,35,30.41,29.99,33,5,34,0.00
2013-2-2,38.3,28.5,19.5,31.1,21.4,13.2,80,74,61,30.37,30.07,19,2,19,0.00
2013-2-3,44.4,36.9,27.7,33.9,26.8,19.4,86,67,47,30.17,29.99,23,5,23,0.00
2013-2-4,46.9,33.8,22.1,29.5,23.5,17.2,84,67,44,30.16,29.96,10,1,10,0.00
2013-2-5,56.4,45.7,37.0,40.3,34.3,28.7,83,65,48,30.03,29.94,19,3,19,0.00
2013-2-6,58.1,43.5,29.3,39.6,30.9,25.4,88,65,32,30.20,30.03,11,1,11,0.00
2013-2-7,51.3,43.7,36.8,41.0,34.3,28.3,86,70,52,30.16,29.94,6,0,6,0.00
2013-2-8,53.2,44.1,37.9,46.0,36.7,26.0,90,76,52,30.28,29.90,20,3,20,0.00
2013-2-9,52.2,40.6,30.2,29.1,23.5,18.6,71,53,28,30.34,30.22,13,3,13,0.00
2013-2-10,60.8,44.6,34.5,44.0,33.0,24.1,85,67,27,30.24,29.97,18,2,18,0.00
2013-2-11,57.0,49.9,42.4,51.2,41.3,29.2,89,74,44,30.14,29.97,19,3,19,0.00
2013-2-12,52.5,44.2,34.3,35.7,29.9,24.6,85,60,35,30.18,29.87,15,2,15,0.00
2013-2-13,47.4,42.0,37.2,44.6,36.7,30.7,92,82,70,30.00,29.70,29,3,29,0.00
2013-2-14,51.9,41.9,34.3,33.7,30.9,27.7,79,66,46,30.08,29.99,17,2,17,0.00
2013-2-15,57.1,40.7,29.6,38.7,32.2,24.8,85,73,45,30.12,30.01,23,3,23,0.00
2013-2-16,37.1,30.8,24.6,29.7,19.7,10.1,86,65,35,30.13,30.00,25,3,25,0.00
2013-2-17,40.5,29.2,17.7,16.0,11.2,7.5,77,49,27,30.27,30.13,19,3,19,0.00
2013-2-18,59.2,40.4,21.5,29.1,21.1,13.4,75,50,28,30.30,29.99,24,3,24,0.00
2013-2-19,51.9,44.5,35.9,40.5,26.6,12.5,86,54,25,30.20,29.91,33,8,33,0.00
2013-2-20,42.4,34.0,23.8,20.1,13.9,10.1,71,44,29,30.24,30.18,12,2,12,0.00
2013-2-21,50.5,37.6,24.8,34.4,19.2,11.4,84,50,26,30.24,29.98,14,3,14,0.00
2013-2-22,56.4,46.6,38.3,46.1,40.5,33.8,89,80,65,30.09,29.98,13,2,14,0.00
2013-2-23,53.6,47.7,43.9,46.5,43.4,39.5,90,85,75,30.04,29.85,10,1,10,0.00
2013-2-24,53.4,42.2,28.9,39.5,28.1,21.1,89,61,31,30.09,29.92,11,1,11,0.00
2013-2-25,53.9,41.6,30.0,35.8,27.8,23.0,78,59,39,30.06,29.80,10,2,10,0.00
2013-2-26,59.7,48.7,42.6,49.6,39.7,31.5,87,71,52,29.80,29.46,30,7,30,0.00
2013-2-27,48.4,41.9,38.8,35.4,32.2,30.3,77,68,54,29.87,29.71,23,7,23,0.00
2013-2-28,39.1,36.8,33.2,31.2,26.2,22.2,80,65,54,30.01,29.83,20,6,20,0.00
2013-3-1,41.4,36.3,34.4,32.3,29.6,25.9,85,77,64,30.00,29.94,14,2,14,0.00
2013-3-2,38.2,33.4,30.0,33.1,26.5,15.0,87,76,55,30.07,29.94,15,3,15,0.00
2013-3-3,35.6,29.9,23.9,20.4,16.0,11.5,72,56,42,30.10,30.05,11,2,11,0.00
2013-3-4,50.0,35.3,19.2,27.6,18.0,11.9,79,54,26,30.19,29.98,7,1,7,0.00
2013-3-5,50.1,39.6,33.9,46.7,33.9,25.4,90,80,68,30.04,29.63,45,5,45,0.00
2013-3-6,34.2,32.0,29.7,28.0,25.5,21.3,83,77,69,30.26,29.88,30,6,30,0.00
2013-3-7,38.8,34.7,32.3,27.7,25.8,23.8,83,70,61,30.34,30.22,8,2,10,0.00
2013-3-8,50.4,38.8,28.5,28.5,23.7,20.9,75,57,33,30.40,30.28,17,3,17,0.00
2013-3-9,60.9,45.4,28.6,35.6,29.3,21.8,80,55,33,30.31,30.17,13,1,13,0.00
2013-3-10,72.2,55.0,37.3,40.8,34.4,26.6,85,51,24,30.17,29.99,16,2,20,0.00
2013-3-11,65.2,58.0,44.8,50.3,45.1,33.7,88,64,37,30.00,29.76,25,6,25,0.00
2013-3-12,50.8,43.3,37.9,40.5,33.0,29.0,85,68,48,30.11,29.90,15,2,15,0.00
2013-3-13,44.9,37.1,30.5,30.2,22.6,15.1,85,58,36,30.32,30.08,24,6,24,0.00
2013-3-14,44.4,35.9,26.7,24.1,15.9,12.1,58,44,31,30.40,30.24,10,2,10,0.00
2013-3-15,67.8,51.2,30.6,42.3,33.2,22.1,80,52,36,30.26,29.91,23,4,23,0.00
2013-3-16,74.0,65.9,59.1,48.2,43.3,38.5,49,44,38,29.92,29.79,26,8,26,0.00
2013-3-17,72.4,64.4,56.0,51.9,45.6,39.2,63,51,40,29.97,29.84,24,5,24,0.00
2013-3-18,68.3,56.7,50.2,50.9,46.9,39.3,89,71,49,29.92,29.76,16,2,17,0.00
2013-3-19,57.4,49.0,36.3,49.3,29.8,12.8,89,52,21,30.14,29.84,20,4,21,0.00
2013-3-20,53.9,43.5,30.6,29.0,20.4,11.4,72,42,23,30.14,29.89,24,4,25,0.00
2013-3-21,40.2,32.5,23.5,24.2,10.4,5.1,62,40,28,30.02,29.94,18,3,19,0.00
2013-3-22,45.8,35.0,23.6,27.2,18.2,9.7,75,52,32,30.08,29.99,8,1,8,0.00
2013-3-23,52.9,44.7,37.9,41.5,34.9,23.4,83,69,48,30.03,29.75,11,2,11,0.00
2013-3-24,54.7,48.0,42.1,50.2,43.0,30.4,90,83,63,29.81,29.39,34,3,34,0.00
2013-3-25,42.1,35.4,31.5,30.9,25.7,22.6,79,68,58,30.03,29.62,31,11,31,0.00
2013-3-26,40.1,34.8,30.8,29.7,25.7,23.3,83,70,52,30.29,30.02,15,4,19,0.00
2013-3-27,48.4,39.1,30.6,30.4,23.9,19.8,80,57,33,30.43,30.26,13,1,14,0.00
2013-3-28,54.5,40.3,25.5,31.5,22.6,15.0,82,54,25,30.35,30.24,11,1,11,0.00
2013-3-29,47.9,38.4,28.2,38.5,30.5,21.8,86,74,50,30.36,30.24,10,1,10,0.00
2013-3-30,60.7,49.3,41.4,47.2,42.2,37.8,88,78,57,30.25,30.01,8,1,8,0.00
2013-3-31,62.6,55.5,50.2,54.5,51.0,46.8,91,85,68,30.01,29.86,21,4,21,0.00
2013-4-1,62.7,52.6,41.0,52.0,41.9,32.6,91,70,38,30.08,29.91,19,3,19,0.00
2013-4-2,53.9,46.2,33.1,33.3,25.1,16.1,77,46,27,30.24,30.08,13,2,13,0.00
2013-4-3,55.1,47.2,36.7,24.7,19.4,14.9,50,33,26,30.27,30.17,18,4,18,0.00
2013-4-4,49.9,43.0,40.0,38.7,31.3,16.8,86,68,29,30.18,29.99,10,2,10,0.00
2013-4-5,59.9,47.9,38.6,41.7,36.9,32.0,88,68,37,30.11,29.97,14,1,14,0.00
2013-4-6,70.1,53.5,35.2,44.1,37.2,30.5,85,58,32,30.19,30.06,12,1,12,0.00
2013-4-7,73.0,61.5,46.7,47.7,40.0,31.6,71,46,34,30.16,30.05,19,3,20,0.00
2013-4-8,76.6,63.3,48.5,56.3,47.5,41.6,81,58,38,30.11,30.02,22,4,24,0.00
2013-4-9,80.5,65.5,49.6,59.2,51.8,44.6,86,63,42,30.19,30.02,19,2,19,0.00
2013-4-10,82.3,68.6,52.0,61.1,54.9,47.3,86,64,43,30.12,29.90,17,2,17,0.00
2013-4-11,81.5,70.3,60.9,60.2,55.1,51.2,89,60,40,29.92,29.66,23,2,29,0.00
2013-4-12,62.9,58.0,48.8,58.2,45.2,34.9,90,64,38,29.96,29.59,29,5,29,0.00
2013-4-13,68.0,54.4,39.5,45.4,38.2,34.1,87,59,30,30.09,29.96,12,1,12,0.00
2013-4-14,68.3,55.2,40.6,49.4,42.4,35.8,85,64,35,30.06,29.94,18,1,18,0.00
2013-4-15,76.2,63.7,51.8,57.9,52.9,47.1,87,69,50,30.10,29.93,9,1,9,0.00
2013-4-16,81.8,66.6,50.6,63.4,56.5,47.5,91,72,50,30.24,30.10,16,2,16,0.00
2013-4-17,73.1,65.3,59.7,62.7,58.3,54.8,90,79,60,30.25,30.06,25,2,25,0.00
2013-4-18,82.0,69.0,55.2,63.0,55.0,50.3,92,65,35,30.07,29.84,27,2,27,0.00
2013-4-19,74.2,59.7,46.3,60.4,48.2,31.5,88,67,50,30.10,29.69,32,6,32,0.00
2013-4-20,58.8,47.5,33.5,36.9,31.8,28.0,86,57,32,30.36,30.10,12,1,12,0.00
2013-4-21,64.8,50.5,36.9,41.4,35.5,32.1,86,60,33,30.39,30.24,10,1,10,0.00
2013-4-22,67.9,55.1,38.6,46.2,38.9,33.5,85,57,34,30.34,30.14,13,1,13,0.00
2013-4-23,71.8,56.8,41.0,50.8,44.2,37.1,88,65,40,30.24,30.04,12,1,12,0.00
2013-4-24,73.8,58.5,47.1,60.3,50.3,42.2,88,76,51,30.25,29.99,29,4,29,0.00
2013-4-25,62.6,51.2,40.5,44.0,38.1,31.1,87,64,33,30.37,30.24,10,1,10,0.00
2013-4-26,66.5,53.1,36.9,45.8,38.0,33.1,88,60,33,30.41,30.29,10,1,10,0.00
2013-4-27,56.9,53.8,51.3,52.6,48.7,42.3,91,83,58,30.36,30.11,9,1,9,0.00
2013-4-28,58.0,54.9,51.5,55.1,52.1,48.7,92,90,88,30.16,29.92,24,1,24,0.00
2013-4-29,71.1,60.7,52.5,58.5,53.0,49.8,93,78,48,30.05,29.95,11,1,11,0.00
2013-4-30,76.3,63.1,47.3,60.8,53.5,44.2,92,73,48,30.09,29.97,8,0,8,0.00
2013-5-1,74.6,66.1,56.5,59.4,54.5,47.9,90,68,48,30.21,30.09,15,2,15,0.00
2013-5-2,76.3,63.5,51.5,59.8,54.2,48.0,90,73,52,30.21,30.10,6,0,6,0.00
2013-5-3,73.2,63.2,52.8,58.9,50.9,44.0,90,66,41,30.14,29.98,19,2,19,0.00
2013-5-4,62.0,57.2,53.3,52.9,47.7,36.5,90,72,46,29.99,29.89,10,2,10,0.00
2013-5-5,58.2,54.0,51.1,55.3,50.9,47.7,92,89,85,29.90,29.77,16,1,16,0.00
2013-5-6,60.0,52.7,45.6,51.0,47.1,42.8,91,82,66,29.93,29.78,9,2,12,0.00
2013-5-7,66.5,56.1,45.6,54.3,48.6,42.0,91,77,55,29.98,29.89,7,0,7,0.00
2013-5-8,72.3,61.7,55.6,61.0,55.3,51.8,89,80,59,30.09,29.95,15,2,15,0.00
2013-5-9,77.7,65.4,51.2,63.6,55.7,48.4,92,73,48,30.14,30.03,11,1,11,0.00
2013-5-10,75.2,65.4,55.0,63.3,56.3,51.7,90,73,56,30.10,29.95,20,2,20,0.00
2013-5-11,73.8,66.0,54.4,63.3,57.0,46.8,89,73,61,30.02,29.89,15,3,15,0.00
2013-5-12,63.2,56.1,45.8,49.1,38.8,28.1,86,55,30,30.16,30.00,14,1,14,0.00
2013-5-13,64.8,51.9,36.2,41.3,34.4,28.3,87,56,27,30.25,30.14,14,1,14,0.00
2013-5-14,76.7,60.0,38.4,53.3,44.8,33.8,86,60,41,30.25,30.05,19,3,19,0.00
2013-5-15,83.2,74.5,66.9,59.9,54.8,50.6,59,51,39,30.17,30.00,16,3,16,0.00
2013-5-16,80.5,68.8,55.4,61.5,55.8,50.4,86,65,40,30.27,29.98,11,1,11,0.00
2013-5-17,78.7,69.2,59.8,64.4,60.1,55.0,87,74,55,30.11,30.02,7,0,7,0.00
2013-5-18,73.4,68.0,63.2,67.0,63.3,59.6,90,85,76,30.09,30.02,15,0,15,0.00
2013-5-19,76.4,67.7,62.2,69.2,63.6,58.8,92,87,75,30.09,29.99,12,1,12,0.00
2013-5-20,80.8,69.7,60.3,69.2,63.0,57.7,92,81,59,30.15,30.01,8,0,8,0.00
2013-5-21,86.2,71.0,61.0,71.2,63.6,57.8,91,79,51,30.08,29.92,38,1,38,0.00
2013-5-22,84.9,70.0,60.5,72.2,62.9,57.6,92,80,48,29.99,29.85,26,2,29,0.00
2013-5-23,79.2,70.6,64.6,65.9,60.4,51.7,92,72,45,30.03,29.90,24,3,24,0.00
2013-5-24,68.0,61.9,50.7,55.1,47.3,38.8,84,61,36,30.28,30.02,11,1,12,0.00
2013-5-25,73.2,59.0,43.1,48.9,43.3,35.6,88,60,27,30.35,30.18,11,1,11,0.00
2013-5-26,74.3,62.4,52.9,54.7,50.0,46.8,86,66,39,30.31,30.19,8,0,8,0.00
2013-5-27,82.7,68.3,52.9,62.2,55.5,48.8,88,66,44,30.24,30.10,15,2,15,0.00
2013-5-28,84.4,73.5,60.9,64.6,58.9,54.2,85,62,44,30.21,30.08,19,2,19,0.00
2013-5-29,84.9,74.6,59.6,67.2,60.9,54.1,85,63,48,30.23,30.09,10,1,10,0.00
2013-5-30,86.1,73.5,58.9,67.5,60.0,55.0,88,65,41,30.25,30.10,9,1,9,0.00
2013-5-31,87.2,74.5,59.7,67.4,59.7,55.6,88,62,40,30.19,30.06,14,1,14,0.00
2013-6-1,87.7,76.9,66.1,67.6,62.0,57.7,88,62,40,30.09,29.95,19,2,19,0.00
2013-6-2,78.2,69.6,64.9,69.2,65.3,61.3,92,86,67,30.02,29.90,23,1,23,0.00
2013-6-3,78.9,71.3,65.2,67.0,63.0,59.7,92,76,55,30.03,29.92,9,0,9,0.00
2013-6-4,80.7,70.7,58.5,64.7,60.7,55.3,91,73,51,30.07,29.99,7,0,7,0.00
2013-6-5,83.2,68.9,61.7,70.4,63.2,58.7,92,83,60,30.07,29.94,18,1,18,0.00
2013-6-6,80.4,71.7,64.2,69.6,65.5,61.7,93,82,63,29.96,29.77,9,0,9,0.00
2013-6-7,80.5,72.5,67.8,69.8,66.2,63.1,91,81,60,29.90,29.74,11,0,11,0.00
2013-6-8,81.2,71.1,63.7,66.9,63.6,60.7,93,78,53,30.09,29.88,10,1,11,0.00
2013-6-9,83.2,70.4,62.9,70.3,65.0,59.7,91,83,62,30.12,30.00,10,0,10,0.00
2013-6-10,80.1,72.7,67.6,67.3,65.0,62.2,93,78,57,30.00,29.91,26,3,27,0.00
2013-6-11,84.2,74.6,64.1,69.8,65.4,61.2,93,75,51,30.07,29.98,11,1,11,0.00
2013-6-12,89.9,78.9,66.5,75.4,69.6,63.5,92,75,53,30.09,29.95,13,2,13,0.00
2013-6-13,84.9,77.7,70.3,74.4,69.4,63.8,88,76,66,29.97,29.77,22,3,22,0.00
2013-6-14,79.3,69.8,58.7,64.2,58.9,54.6,92,70,44,30.07,29.92,10,1,10,0.00
2013-6-15,82.6,70.7,57.5,64.6,59.8,54.3,90,70,46,30.16,30.06,12,1,12,0.00
2013-6-16,84.6,74.3,62.0,68.9,64.2,58.4,90,72,52,30.14,30.02,15,1,15,0.00
2013-6-17,81.0,73.5,68.3,70.5,67.7,64.7,92,83,66,30.08,29.95,9,1,9,0.00
2013-6-18,76.7,70.6,65.7,72.3,66.2,61.8,92,86,76,29.99,29.88,15,1,15,0.00
2013-6-19,81.3,70.8,61.6,67.6,62.5,58.7,93,77,48,30.10,29.97,8,1,8,0.00
2013-6-20,83.8,72.9,62.2,70.3,63.9,59.0,91,75,49,30.21,30.09,15,1,15,0.00
2013-6-21,81.4,72.9,67.5,69.9,65.7,62.4,91,79,61,30.27,30.16,11,0,11,0.00
2013-6-22,83.1,73.3,63.6,69.0,63.5,57.4,91,73,43,30.26,30.09,11,1,11,0.00
2013-6-23,84.3,73.9,63.2,68.6,64.7,59.9,90,74,51,30.23,30.12,7,0,7,0.00
2013-6-24,86.5,76.2,65.7,71.5,66.9,62.6,91,75,48,30.24,30.10,11,1,11,0.00
2013-6-25,84.0,74.8,67.0,71.9,67.8,63.7,91,80,64,30.19,30.05,10,1,10,0.00
2013-6-26,85.6,74.2,66.9,74.6,68.2,63.9,91,82,64,30.08,29.90,11,1,11,0.00
2013-6-27,83.3,75.0,66.3,74.6,69.0,62.1,93,82,69,29.95,29.81,24,2,24,0.00
2013-6-28,87.0,75.3,66.8,73.9,68.6,63.8,92,81,57,29.87,29.68,17,1,17,0.00
2013-6-29,83.5,74.6,66.7,70.3,64.4,59.5,92,73,46,29.74,29.68,13,1,13,0.00
2013-6-30,84.8,74.4,64.1,67.0,62.0,55.1,89,68,39,29.82,29.72,13,1,13,0.00
2013-7-1,80.3,70.7,64.3,70.1,64.6,60.5,90,81,65,29.93,29.80,26,1,26,0.00
2013-7-2,80.6,71.7,65.2,70.1,66.3,62.5,93,84,66,30.09,29.93,16,0,16,0.00
2013-7-3,73.2,69.0,66.5,69.2,66.0,63.8,93,90,86,30.19,30.08,6,0,8,0.00
2013-7-4,76.8,69.9,65.5,71.1,66.6,62.9,93,89,81,30.19,30.11,6,0,6,0.00
2013-7-5,81.7,73.7,68.8,70.6,68.2,66.5,94,84,64,30.20,30.13,10,0,10,0.00
2013-7-6,81.3,71.3,67.1,73.8,67.6,64.4,94,89,71,30.19,30.11,21,0,22,0.00
2013-7-7,70.9,68.1,65.8,68.3,65.8,63.4,93,92,89,30.21,30.11,6,0,6,0.00
2013-7-8,84.1,74.6,67.3,73.2,68.2,64.5,94,82,56,30.24,30.13,5,0,5,0.00
2013-7-9,87.0,76.5,67.0,75.5,69.9,64.3,93,81,62,30.20,30.08,9,0,9,0.00
2013-7-10,87.2,75.8,70.9,76.7,70.5,68.0,92,84,63,30.13,29.96,24,1,24,0.00
2013-7-11,84.0,74.9,69.5,72.7,69.2,66.0,92,83,65,30.02,29.91,7,0,7,0.00
2013-7-12,81.8,74.0,66.0,70.6,65.7,61.3,93,77,54,30.02,29.94,8,0,8,0.00
2013-7-13,83.6,73.7,65.6,70.4,65.5,62.0,90,76,58,30.10,29.98,8,0,8,0.00
2013-7-14,84.8,74.9,67.6,72.7,67.7,64.1,91,79,60,30.24,30.09,20,1,20,0.00
2013-7-15,86.8,77.3,65.5,71.7,67.3,62.5,91,73,53,30.39,30.23,7,0,8,0.00
2013-7-16,88.2,78.3,67.9,72.6,68.6,64.8,91,74,50,30.37,30.25,9,0,9,0.00
2013-7-17,89.0,77.8,68.6,74.6,69.2,64.1,92,76,52,30.33,30.17,23,1,23,0.00
2013-7-18,87.3,76.1,67.8,74.4,69.0,64.8,92,80,55,30.28,30.09,10,1,10,0.00
2013-7-19,88.3,78.6,69.5,75.6,70.5,66.4,92,78,56,30.16,30.00,10,0,10,0.00
2013-7-20,87.6,78.5,71.3,74.9,70.7,65.2,90,78,61,30.07,29.94,12,1,12,0.00
2013-7-21,82.4,73.7,69.3,74.3,69.3,66.2,93,86,73,30.06,29.96,13,0,13,0.00
2013-7-22,84.0,74.3,68.4,73.3,68.7,65.7,93,83,63,30.04,29.86,21,2,21,0.00
2013-7-23,83.5,75.8,70.1,73.0,68.8,66.1,88,79,67,29.98,29.86,15,2,16,0.00
2013-7-24,83.2,76.0,70.9,72.7,69.3,65.1,90,80,60,29.94,29.85,10,1,10,0.00
2013-7-25,83.0,73.8,65.3,68.8,64.2,60.9,91,73,51,30.08,29.92,7,0,7,0.00
2013-7-26,83.9,70.2,60.2,71.3,64.1,57.3,92,82,61,30.11,30.01,24,0,24,0.00
2013-7-27,78.3,70.7,65.9,70.7,65.9,63.0,92,85,71,30.05,29.92,8,0,8,0.00
2013-7-28,80.5,73.0,66.8,67.9,64.8,60.2,91,77,53,30.09,29.94,13,1,13,0.00
2013-7-29,78.7,68.6,58.4,63.2,59.2,54.3,92,74,44,30.23,30.09,5,0,5,0.00
2013-7-30,78.8,68.1,57.4,66.3,61.1,54.5,92,79,57,30.26,30.17,6,0,6,0.00
2013-7-31,79.0,71.3,65.1,69.8,66.1,61.5,92,84,71,30.18,30.00,16,1,16,0.00
2013-8-1,82.8,75.2,69.3,72.2,68.3,64.5,93,80,56,30.03,29.97,8,0,9,0.00
2013-8-2,84.0,73.7,63.7,68.2,64.6,58.4,93,75,42,30.08,30.01,11,0,11,0.00
2013-8-3,83.0,74.5,66.6,71.1,67.1,63.6,91,78,60,30.08,29.15,13,1,13,0.00
2013-8-4,82.7,75.9,68.9,70.2,65.9,59.7,90,73,46,30.11,29.97,4,0,7,0.00
2013-8-5,84.4,72.4,61.2,67.5,62.3,54.3,91,73,37,30.11,30.00,12,1,12,0.00
2013-8-6,84.3,75.6,67.9,71.2,67.0,62.8,88,76,56,30.05,29.98,10,1,10,0.00
2013-8-7,82.6,75.7,71.8,74.7,70.8,68.7,91,85,72,30.08,29.97,9,1,11,0.00
2013-8-8,83.0,75.2,70.2,74.7,70.4,67.1,91,85,71,30.09,30.00,9,0,11,0.00
2013-8-9,88.1,76.0,68.9,76.3,70.4,66.4,93,83,62,30.11,30.02,12,1,12,0.00
2013-8-10,87.8,75.9,70.6,75.6,70.6,66.7,93,84,63,30.16,30.08,14,1,14,0.00
2013-8-11,85.4,74.4,68.8,75.1,69.9,66.4,93,86,65,30.19,30.08,12,1,15,0.00
2013-8-12,83.8,74.6,68.1,75.0,70.0,65.7,93,86,71,30.15,30.01,11,1,11,0.00
2013-8-13,84.0,75.6,71.6,72.9,70.1,67.4,90,83,63,30.02,29.91,14,2,16,0.00
2013-8-14,76.4,70.7,63.7,68.1,61.0,55.5,89,72,51,30.09,29.96,14,1,14,0.00
2013-8-15,80.0,69.4,59.3,66.7,60.3,53.4,86,73,58,30.17,30.02,8,0,8,0.00
2013-8-16,77.5,70.7,65.1,67.7,64.1,61.3,91,80,63,30.13,30.05,9,0,9,0.00
2013-8-17,73.3,68.7,65.2,64.9,63.0,60.8,92,82,67,30.17,30.09,8,0,8,0.00
2013-8-18,78.5,70.0,65.9,69.8,65.3,63.2,93,86,67,30.22,30.13,19,1,19,0.00
2013-8-19,77.3,71.1,66.9,69.9,66.7,64.5,93,86,71,30.18,30.09,7,0,7,0.00
2013-8-20,81.3,72.9,65.9,71.7,67.6,63.5,93,84,67,30.21,30.11,8,0,8,0.00
2013-8-21,79.3,72.6,68.7,71.9,68.5,66.0,93,87,75,30.25,30.13,11,0,11,0.00
2013-8-22,84.7,75.7,67.1,73.1,68.9,64.7,93,81,57,30.21,30.06,7,0,7,0.00
2013-8-23,84.3,73.3,66.7,73.5,67.4,64.3,93,83,57,30.13,30.03,10,0,10,0.00
2013-8-24,84.5,72.5,64.8,70.1,64.4,56.0,93,78,39,30.25,30.11,8,1,8,0.00
2013-8-25,82.1,71.3,60.9,67.0,62.3,58.0,93,75,48,30.39,30.25,8,0,8,0.00
2013-8-26,81.5,70.5,59.0,66.1,61.6,56.1,92,75,51,30.35,30.16,7,0,7,0.00
2013-8-27,82.2,72.2,62.3,69.4,64.8,59.3,92,79,57,30.19,30.07,6,0,6,0.00
2013-8-28,86.1,75.5,65.7,72.8,67.6,62.7,92,78,56,30.11,30.01,10,0,10,0.00
2013-8-29,85.9,77.2,70.3,74.8,70.7,66.9,91,81,66,30.06,29.97,5,0,7,0.00
2013-8-30,88.4,77.2,69.1,74.6,70.1,66.2,93,80,54,30.05,29.94,9,1,9,0.00
2013-8-31,88.2,78.1,69.9,75.9,70.9,65.3,93,80,57,30.01,29.88,10,1,10,0.00
2013-9-1,85.7,74.9,68.8,73.7,69.2,65.8,92,83,63,29.94,29.85,19,1,19,0.00
2013-9-2,83.6,74.5,66.9,72.2,68.1,64.4,93,81,64,29.98,29.87,13,2,13,0.00
2013-9-3,78.2,72.7,67.4,67.6,64.9,62.9,86,77,69,30.03,29.04,1,0,3,0.00
2013-9-4,81.7,70.5,60.2,68.2,63.1,57.6,94,79,53,30.13,30.02,4,0,6,0.00
2013-9-5,81.0,70.0,59.6,68.6,61.8,56.8,93,77,48,30.18,30.10,6,0,6,0.00
2013-9-6,82.4,70.6,59.2,65.6,61.1,56.3,91,74,46,30.19,30.08,11,0,11,0.00
2013-9-7,82.8,71.2,58.8,68.4,63.2,55.9,91,77,54,30.14,30.01,10,1,10,0.00
2013-9-8,83.2,73.1,63.2,70.3,65.5,60.2,92,78,57,30.04,29.96,6,0,6,0.00
2013-9-9,86.4,74.7,63.6,70.7,66.3,60.7,92,76,54,30.12,30.02,8,0,8,0.00
2013-9-10,86.7,75.2,64.4,70.8,66.5,61.6,92,76,52,30.24,30.12,19,0,19,0.00
2013-9-11,85.7,75.0,65.2,71.6,67.1,62.5,93,78,53,30.25,30.11,9,0,9,0.00
2013-9-12,84.2,72.8,66.9,73.3,67.2,63.0,92,83,63,30.11,29.92,20,1,20,0.00
2013-9-13,75.9,68.0,57.7,65.4,58.3,49.8,93,73,43,30.01,29.91,10,0,10,0.00
2013-9-14,73.4,62.0,52.1,55.7,51.8,47.1,87,71,49,30.10,29.99,10,0,10,0.00
2013-9-15,80.0,65.4,50.9,62.9,57.0,47.9,92,76,53,30.22,30.09,8,0,8,0.00
2013-9-16,81.4,68.8,58.7,66.6,59.5,55.8,92,74,44,30.18,30.12,7,0,7,0.00
2013-9-17,77.0,68.9,62.5,64.8,60.6,56.3,85,75,63,30.23,30.14,5,0,5,0.00
2013-9-18,72.3,66.8,62.7,63.4,61.2,58.9,90,82,69,30.24,30.14,1,0,1,0.00
2013-9-19,80.3,69.3,60.1,64.6,61.4,57.4,92,78,56,30.20,30.06,12,0,12,0.00
2013-9-20,83.2,71.1,59.4,66.2,62.2,56.2,91,75,50,30.09,29.90,13,1,13,0.00
2013-9-21,68.0,65.3,62.5,65.3,62.2,59.0,92,90,86,29.91,29.77,11,0,11,0.00
2013-9-22,72.0,63.2,54.0,59.9,55.8,51.7,93,78,53,29.94,29.84,14,1,14,0.00
2013-9-23,76.4,63.3,51.0,61.7,55.9,47.9,91,78,56,30.04,29.94,7,0,7,0.00
2013-9-24,77.1,66.5,55.1,63.7,59.5,52.4,93,79,56,30.07,29.90,11,1,11,0.00
2013-9-25,68.8,65.6,64.4,64.3,62.5,61.4,93,90,81,29.91,29.84,4,0,5,0.00
2013-9-26,75.3,67.2,60.2,63.8,61.3,56.6,93,82,59,30.04,29.89,6,0,6,0.00
2013-9-27,76.1,64.1,53.8,62.9,56.8,51.2,93,79,48,30.17,30.04,6,0,6,0.00
2013-9-28,74.5,63.8,54.1,61.8,56.8,51.0,91,79,58,30.23,30.10,8,0,8,0.00
2013-9-29,69.5,63.3,59.8,59.5,57.9,56.3,91,83,66,30.19,30.02,0,0,0,0.00
2013-9-30,74.6,64.0,53.9,61.0,56.9,51.0,92,79,56,30.10,30.01,8,0,8,0.00
2013-10-1,76.7,65.0,54.5,61.8,58.1,51.6,92,80,56,30.18,30.07,8,0,9,0.00
2013-10-2,79.2,67.4,57.6,65.9,60.5,54.7,92,80,57,30.19,30.08,7,0,7,0.00
2013-10-3,80.6,68.9,61.9,66.0,61.9,59.0,92,80,56,30.16,30.06,4,0,7,0.00
2013-10-4,73.8,62.2,57.4,65.2,58.7,54.5,92,88,74,30.19,30.11,0,0,0,0.00
2013-10-5,83.2,71.4,59.0,67.5,63.1,56.1,92,77,54,30.16,30.01,0,0,0,0.00
2013-10-6,83.0,70.7,57.8,66.8,60.5,55.1,93,72,47,30.01,29.77,16,1,16,0.00
2013-10-7,67.3,59.2,52.9,62.3,50.8,45.2,90,75,48,30.09,29.86,19,1,19,0.00
2013-10-8,70.2,58.2,48.8,53.8,49.0,44.4,88,73,52,30.15,30.07,14,2,14,0.00
2013-10-9,73.7,60.3,48.7,58.0,52.4,45.6,91,77,53,30.22,30.11,7,0,7,0.00
2013-10-10,71.6,58.8,48.9,58.7,51.5,45.9,93,79,49,30.18,30.04,7,0,7,0.00
2013-10-11,75.1,60.7,48.2,59.0,52.9,45.2,91,77,51,30.10,29.98,6,0,6,0.00
2013-10-12,76.5,62.7,49.7,59.8,54.3,46.9,92,76,47,30.12,30.02,8,0,8,0.00
2013-10-13,73.8,64.0,55.5,63.5,58.5,52.3,92,83,66,30.22,30.11,9,0,9,0.00
2013-10-14,75.6,67.0,59.8,62.7,60.0,55.8,93,80,58,30.24,30.10,11,1,11,0.00
2013-10-15,72.8,65.0,57.8,61.7,58.7,54.9,92,81,65,30.15,30.03,7,0,7,0.00
2013-10-16,70.8,63.4,56.3,60.0,57.3,52.8,91,81,65,30.07,29.96,14,1,14,0.00
2013-10-17,69.3,62.5,56.1,65.2,58.3,49.4,93,86,74,30.02,29.87,15,1,15,0.00
2013-10-18,64.7,55.6,47.1,50.0,47.9,44.0,92,76,54,30.07,29.96,11,1,11,0.00
2013-10-19,63.8,54.8,49.5,53.0,48.7,44.1,91,80,62,30.04,29.91,15,2,15,0.00
2013-10-20,61.2,49.8,38.2,44.7,39.9,34.5,89,71,41,30.11,30.02,9,0,9,0.00
2013-10-21,68.3,50.8,36.1,50.5,42.0,32.8,90,74,46,30.13,29.99,13,1,13,0.00
2013-10-22,65.8,56.2,49.1,52.9,49.0,45.1,91,78,57,30.02,29.86,8,0,8,0.00
2013-10-23,52.8,47.3,33.6,48.1,38.0,28.9,89,71,52,30.11,29.81,23,3,23,0.00
2013-10-24,53.7,43.9,32.9,38.9,35.0,28.4,87,72,53,30.26,30.08,15,1,15,0.00
2013-10-25,48.7,38.8,28.0,33.2,26.1,22.8,85,62,38,30.43,30.25,10,1,10,0.00
2013-10-26,58.1,42.4,25.4,34.1,27.0,20.6,85,59,30,30.33,30.09,19,2,19,0.00
2013-10-27,63.2,55.2,47.9,49.5,42.4,30.9,82,63,44,30.14,30.07,11,1,11,0.00
2013-10-28,67.1,57.5,50.3,54.1,50.3,46.5,91,78,57,30.28,30.12,19,2,19,0.00
2013-10-29,70.8,59.4,50.0,54.6,51.1,47.1,91,76,50,30.33,30.21,9,0,9,0.00
2013-10-30,77.3,63.6,55.0,57.9,53.5,51.1,89,72,43,30.27,30.12,14,1,14,0.00
2013-10-31,74.5,65.2,54.3,58.8,54.2,50.5,89,69,51,30.14,29.63,26,2,26,0.00
2013-11-1,72.7,64.2,49.1,60.6,53.0,43.7,89,68,45,29.83,29.66,24,4,24,0.00
2013-11-2,62.1,51.1,41.3,47.3,40.9,33.5,90,70,39,30.10,29.81,14,2,14,0.00
2013-11-3,56.9,46.1,35.0,41.7,35.2,30.8,89,68,41,30.30,30.09,12,1,12,0.00
2013-11-4,62.4,46.1,31.2,41.2,35.5,27.2,89,69,40,30.40,30.30,7,0,7,0.00
2013-11-5,63.9,50.6,40.8,41.6,39.4,36.9,88,68,39,30.43,30.30,6,0,6,0.00
2013-11-6,74.8,57.7,42.7,53.6,46.1,37.6,88,67,42,30.31,30.05,19,1,19,0.00
2013-11-7,60.9,50.6,35.3,56.2,43.0,31.1,91,76,50,30.28,30.01,17,1,19,0.00
2013-11-8,52.3,39.7,28.6,34.7,26.5,20.0,89,64,29,30.38,30.26,14,1,14,0.00
2013-11-9,55.8,41.1,27.6,37.0,30.7,23.4,86,68,41,30.31,30.19,11,0,11,0.00
2013-11-10,63.5,48.3,34.7,44.9,35.6,26.8,88,64,37,30.30,30.23,9,0,9,0.00
2013-11-11,62.3,44.1,28.4,35.0,29.0,23.3,84,59,27,30.32,30.15,12,1,12,0.00
2013-11-12,49.1,38.7,29.2,40.1,27.3,12.1,78,64,46,30.53,30.11,10,2,17,0.00
2013-11-13,40.7,31.1,22.2,18.7,15.1,12.4,71,52,33,30.61,30.44,13,2,13,0.00
2013-11-14,53.4,34.5,19.9,26.4,19.4,13.9,81,58,27,30.46,30.26,9,0,9,0.00
2013-11-15,47.3,37.1,27.0,38.1,29.9,19.8,88,75,54,30.28,30.15,5,0,5,0.00
2013-11-16,63.7,50.0,41.0,52.5,44.7,37.7,89,82,66,30.22,30.07,6,0,6,0.00
2013-11-17,70.5,56.8,44.2,62.8,53.0,41.5,93,88,64,30.10,29.83,19,1,19,0.00
2013-11-18,68.2,55.8,41.7,62.8,42.1,29.9,91,63,33,30.16,29.86,18,1,18,0.00
2013-11-19,50.9,42.8,33.0,30.6,26.3,21.6,80,54,33,30.22,30.13,17,3,17,0.00
2013-11-20,55.6,42.3,29.3,32.7,28.3,23.8,83,60,36,30.30,30.16,5,0,5,0.00
2013-11-21,61.8,45.4,31.4,43.5,36.1,27.1,86,71,49,30.36,30.24,8,0,8,0.00
2013-11-22,57.3,52.0,45.7,54.5,48.2,40.4,92,87,81,30.30,30.18,8,0,8,0.00
2013-11-23,52.4,44.0,32.2,49.6,35.6,17.6,90,73,50,30.38,30.19,11,1,11,0.00
2013-11-24,34.5,28.7,23.0,18.7,9.3,3.2,60,45,28,30.54,30.38,15,3,15,0.00
2013-11-25,35.8,30.2,23.2,27.4,15.8,7.3,81,55,42,30.43,30.16,4,1,6,0.00
2013-11-26,42.1,36.9,32.3,39.7,33.9,27.3,91,89,81,30.17,29.73,11,1,11,0.00
2013-11-27,36.5,31.2,26.7,33.6,25.2,17.4,89,79,63,30.27,29.81,12,1,12,0.00
2013-11-28,39.0,29.3,21.1,23.6,19.7,15.1,83,68,48,30.46,30.27,6,1,6,0.00
2013-11-29,47.2,32.7,21.7,30.2,22.7,17.3,86,69,40,30.55,30.45,10,1,10,0.00
2013-11-30,50.4,34.5,23.2,33.7,26.0,18.8,87,73,46,30.50,30.27,6,0,6,0.00
2013-12-1,54.6,40.0,24.1,35.9,29.4,20.0,87,68,44,30.28,29.99,13,1,13,0.00
2013-12-2,49.1,45.6,42.4,41.4,39.1,35.3,85,78,70,30.00,29.81,4,0,4,0.00
2013-12-3,57.1,49.5,44.5,50.3,45.2,40.8,91,85,76,29.88,29.82,8,0,8,0.00
2013-12-4,71.8,56.9,45.3,56.5,49.7,42.6,92,78,55,29.97,29.87,20,1,20,0.00
2013-12-5,74.0,64.5,54.6,62.3,57.5,50.1,89,78,65,30.02,29.90,17,2,17,0.00
2013-12-6,67.3,48.6,37.9,61.6,45.3,35.0,92,88,80,30.17,29.88,18,2,18,0.00
2013-12-7,39.2,37.2,35.7,35.8,33.5,30.8,91,86,80,30.38,30.16,17,2,17,0.00
2013-12-8,43.1,39.0,35.1,40.8,35.7,30.1,92,88,80,30.31,30.06,11,1,11,0.00
2013-12-9,49.9,45.6,40.8,47.6,43.0,37.2,94,91,85,30.13,29.98,10,1,10,0.00
2013-12-10,40.9,35.6,26.8,37.9,31.6,23.3,90,85,74,30.34,29.97,15,1,15,0.00
2013-12-11,46.4,31.7,21.2,31.9,25.5,17.1,89,78,56,30.42,30.32,10,1,10,0.00
2013-12-12,36.4,28.6,23.2,23.9,18.6,12.0,85,68,38,30.51,30.36,8,1,8,0.00
2013-12-13,44.8,32.4,19.3,26.4,20.7,14.5,83,64,39,30.39,30.10,6,0,6,0.00
2013-12-14,49.3,41.8,37.1,47.1,35.3,23.1,92,78,50,30.15,29.78,19,2,19,0.00
2013-12-15,45.3,36.2,29.5,41.7,29.7,24.2,87,77,70,30.19,29.83,22,5,22,0.00
2013-12-16,52.4,38.1,26.0,33.4,27.9,21.9,87,69,43,30.22,30.08,18,3,18,0.00
2013-12-17,54.9,47.5,37.0,35.0,29.3,20.1,64,49,42,30.22,29.99,26,7,26,0.00
2013-12-18,45.7,34.6,23.4,26.9,19.2,13.8,82,56,30,30.32,30.22,11,1,11,0.00
2013-12-19,53.5,36.6,23.0,28.6,23.8,16.9,80,62,35,30.30,30.12,6,0,6,0.00
2013-12-20,57.7,43.8,29.5,42.0,33.0,24.6,84,67,44,30.18,30.05,8,0,8,0.00
2013-12-21,73.7,61.9,45.5,60.6,51.1,39.3,81,68,59,30.05,29.80,28,2,28,0.00
2013-12-22,73.1,59.7,54.5,61.3,54.5,51.5,90,84,58,30.06,29.80,38,3,38,0.00
2013-12-23,54.5,43.3,34.1,51.7,38.2,25.4,91,82,70,30.32,30.01,15,2,15,0.00
2013-12-24,34.1,31.2,24.2,26.1,19.8,12.2,75,63,44,30.44,30.31,13,2,13,0.00
2013-12-25,39.9,27.7,17.8,24.3,18.6,12.1,82,69,51,30.43,30.28,5,0,5,0.00
2013-12-26,45.7,32.2,22.1,29.5,23.0,17.6,86,71,45,30.38,30.28,10,1,10,0.00
2013-12-27,49.1,32.9,21.5,30.3,23.0,16.7,85,69,38,30.45,30.33,5,0,5,0.00
2013-12-28,39.9,32.5,23.6,34.2,27.1,18.7,87,80,66,30.38,29.94,5,0,5,0.00
2013-12-29,47.7,42.2,37.7,43.0,38.1,34.1,91,86,77,30.03,29.84,12,2,12,0.00
2013-12-30,42.5,38.0,35.2,38.4,32.1,28.5,88,79,72,30.21,30.01,12,2,12,0.00
2013-12-31,39.7,32.6,26.4,29.4,24.1,20.9,86,72,48,30.43,30.19,14,1,14,0.00
2014-1-1,45.2,31.0,20.8,29.3,23.4,15.9,85,74,52,30.33,30.07,7,0,7,0.00
2014-1-2,39.8,32.1,21.5,36.8,26.7,11.3,89,80,64,30.16,29.77,23,4,28,0.00